When you browse on this site, cookies collect data to enhance your experience and personalize the content and advertising you see.
Visit our Privacy Policy to learn more. By continuing to use the site, you agree to this use of cookies and data.
  • In Hungary
  • List of Countries
  • For 7 days
  • Water Temperature
  • Satellite Maps
  • Weather Map
  • News
  • Weather Widgets
  • user-avatar
    Login

    Hourly Weather Benevento

    Today, 10 December, Monday

    Time Temperature Precipitation Wind Pressure Humidity
    00:00 +10°C° 0.3 mm 3 mps 742 mmHg 84%
    01:00 +9°C° 0 mm 2 mps 742 mmHg 84%
    02:00 +9°C° 0.1 mm 2 mps 742 mmHg 83%
    03:00 +9°C° 0.1 mm 2 mps 742 mmHg 82%
    04:00 +9°C° 0.1 mm 2 mps 743 mmHg 81%
    05:00 +9°C° 0 mm 2 mps 743 mmHg 79%
    06:00 +10°C° 0 mm 1 mps 743 mmHg 77%
    07:00 +9°C° 0 mm 1 mps 744 mmHg 72%
    08:00 +11°C° 0 mm 1 mps 744 mmHg 66%
    09:00 +12°C° 0 mm 1 mps 744 mmHg 60%
    10:00 +14°C° 0 mm 1 mps 744 mmHg 54%
    11:00 +14°C° 0 mm 2 mps 744 mmHg 51%
    12:00 +15°C° 0 mm 2 mps 744 mmHg 48%
    13:00 +16°C° 0 mm 2 mps 744 mmHg 44%
    14:00 +15°C° 0.2 mm 2 mps 744 mmHg 50%
    15:00 +13°C° 0.2 mm 3 mps 744 mmHg 55%
    16:00 +12°C° 0.2 mm 3 mps 744 mmHg 60%
    17:00 +11°C° 0.2 mm 3 mps 745 mmHg 64%
    18:00 +10°C° 0.2 mm 3 mps 745 mmHg 69%
    19:00 +9°C° 0.2 mm 3 mps 745 mmHg 73%
    20:00 +9°C° 0.1 mm 3 mps 746 mmHg 74%
    21:00 +9°C° 0.1 mm 3 mps 746 mmHg 76%
    22:00 +9°C° 0.1 mm 3 mps 746 mmHg 77%
    23:00 +9°C° 0.2 mm 3 mps 747 mmHg 77%

    Tomorrow, 11 December, Tuesday

    Time Temperature Precipitation Wind Pressure Humidity
    00:00 +8°C° 0.2 mm 3 mps 747 mmHg 77%
    01:00 +8°C° 0.2 mm 3 mps 747 mmHg 77%
    02:00 +8°C° 0.3 mm 3 mps 747 mmHg 77%
    03:00 +8°C° 0.3 mm 3 mps 747 mmHg 77%
    04:00 +7°C° 0.3 mm 3 mps 747 mmHg 78%
    05:00 +7°C° 0 mm 2 mps 747 mmHg 79%
    06:00 +6°C° 0 mm 2 mps 748 mmHg 79%
    07:00 +6°C° 0 mm 2 mps 748 mmHg 80%
    08:00 +7°C° 0 mm 2 mps 748 mmHg 72%
    09:00 +9°C° 0 mm 1 mps 748 mmHg 64%
    10:00 +10°C° 0 mm 1 mps 749 mmHg 55%
    11:00 +11°C° 0 mm 1 mps 748 mmHg 49%
    12:00 +12°C° 0 mm 1 mps 748 mmHg 43%
    13:00 +12°C° 0 mm 1 mps 748 mmHg 37%
    14:00 +12°C° 0.1 mm 1 mps 748 mmHg 41%
    15:00 +11°C° 0.1 mm 1 mps 748 mmHg 46%
    16:00 +11°C° 0.1 mm 1 mps 748 mmHg 50%
    17:00 +10°C° 0 mm 1 mps 749 mmHg 52%
    18:00 +9°C° 0 mm 1 mps 749 mmHg 55%
    19:00 +9°C° 0 mm 1 mps 749 mmHg 58%
    20:00 +8°C° 0 mm 1 mps 749 mmHg 59%
    21:00 +8°C° 0 mm 1 mps 750 mmHg 60%
    22:00 +7°C° 0 mm 1 mps 750 mmHg 61%
    23:00 +7°C° 0 mm 1 mps 750 mmHg 61%

    Day after tomorrow, 12 December, Wednesday

    Time Temperature Precipitation Wind Pressure Humidity
    00:00 +7°C° 0 mm 1 mps 750 mmHg 61%
    01:00 +6°C° 0 mm 1 mps 750 mmHg 61%
    02:00 +6°C° 0 mm 1 mps 750 mmHg 60%
    03:00 +6°C° 0 mm 1 mps 750 mmHg 60%
    04:00 +6°C° 0 mm 1 mps 749 mmHg 59%
    05:00 +6°C° 0 mm 1 mps 750 mmHg 58%
    06:00 +6°C° 0 mm 1 mps 750 mmHg 57%
    07:00 +5°C° 0 mm 1 mps 750 mmHg 57%
    08:00 +6°C° 0 mm 2 mps 750 mmHg 52%
    09:00 +7°C° 0 mm 2 mps 750 mmHg 47%
    10:00 +9°C° 0 mm 2 mps 750 mmHg 42%
    11:00 +10°C° 0 mm 2 mps 749 mmHg 39%
    12:00 +10°C° 0 mm 2 mps 749 mmHg 37%
    13:00 +12°C° 0 mm 2 mps 748 mmHg 34%
    14:00 +12°C° 0 mm 2 mps 748 mmHg 38%
    15:00 +10°C° 0 mm 2 mps 748 mmHg 41%
    16:00 +10°C° 0 mm 2 mps 747 mmHg 45%
    17:00 +9°C° 0.1 mm 2 mps 747 mmHg 48%
    18:00 +8°C° 0.1 mm 2 mps 747 mmHg 51%
    19:00 +8°C° 0.1 mm 3 mps 746 mmHg 54%
    20:00 +8°C° 0.3 mm 2 mps 746 mmHg 60%
    21:00 +8°C° 0.3 mm 2 mps 746 mmHg 65%
    22:00 +7°C° 0.3 mm 2 mps 746 mmHg 71%
    23:00 +7°C° 0 mm 2 mps 745 mmHg 74%

    13 December, Thursday

    Time Temperature Precipitation Wind Pressure Humidity
    00:00 +7°C° 0 mm 2 mps 745 mmHg 78%
    01:00 +7°C° 0 mm 2 mps 745 mmHg 81%
    02:00 +8°C° 0.1 mm 1 mps 744 mmHg 84%
    03:00 +8°C° 0.1 mm 1 mps 744 mmHg 87%
    04:00 +8°C° 0.1 mm 1 mps 743 mmHg 90%
    05:00 +8°C° 0 mm 1 mps 743 mmHg 90%
    06:00 +9°C° 0 mm 1 mps 743 mmHg 91%
    07:00 +9°C° 0 mm 1 mps 743 mmHg 91%
    08:00 +10°C° 0 mm 1 mps 743 mmHg 88%
    09:00 +11°C° 0 mm 1 mps 743 mmHg 85%
    10:00 +12°C° 0 mm 1 mps 743 mmHg 82%
    11:00 +12°C° 0.1 mm 2 mps 743 mmHg 79%
    12:00 +13°C° 0.1 mm 2 mps 743 mmHg 76%
    13:00 +13°C° 0.1 mm 2 mps 743 mmHg 73%
    14:00 +13°C° 0.1 mm 2 mps 743 mmHg 75%
    15:00 +13°C° 0.1 mm 2 mps 743 mmHg 77%
    16:00 +12°C° 0.1 mm 1 mps 743 mmHg 79%
    17:00 +12°C° 0.1 mm 1 mps 743 mmHg 81%
    18:00 +11°C° 0.1 mm 1 mps 744 mmHg 84%
    19:00 +11°C° 0.1 mm 1 mps 744 mmHg 86%
    20:00 +11°C° 0.1 mm 1 mps 744 mmHg 87%
    21:00 +10°C° 0.1 mm 1 mps 744 mmHg 88%
    22:00 +10°C° 0.1 mm 1 mps 745 mmHg 88%
    23:00 +10°C° 0 mm 1 mps 745 mmHg 89%

    14 December, Friday

    Time Temperature Precipitation Wind Pressure Humidity
    00:00 +10°C° 0 mm 1 mps 745 mmHg 89%
    01:00 +10°C° 0 mm 1 mps 744 mmHg 89%
    02:00 +10°C° 0 mm 1 mps 744 mmHg 89%
    03:00 +10°C° 0 mm 1 mps 744 mmHg 89%
    04:00 +10°C° 0 mm 1 mps 744 mmHg 89%
    05:00 +10°C° 0 mm 1 mps 745 mmHg 89%
    06:00 +8°C° 0 mm 2 mps 745 mmHg 89%
    07:00 +8°C° 0 mm 2 mps 745 mmHg 89%
    08:00 +9°C° 0 mm 2 mps 745 mmHg 85%
    09:00 +10°C° 0 mm 2 mps 746 mmHg 81%
    10:00 +12°C° 0 mm 2 mps 746 mmHg 76%
    11:00 +13°C° 0 mm 2 mps 746 mmHg 72%
    12:00 +14°C° 0 mm 2 mps 746 mmHg 68%
    13:00 +15°C° 0 mm 2 mps 746 mmHg 64%
    14:00 +14°C° 0 mm 2 mps 746 mmHg 68%
    15:00 +14°C° 0 mm 2 mps 746 mmHg 71%
    16:00 +13°C° 0 mm 3 mps 747 mmHg 75%
    17:00 +12°C° 0 mm 3 mps 747 mmHg 78%
    18:00 +11°C° 0 mm 3 mps 747 mmHg 82%
    19:00 +11°C° 0 mm 3 mps 748 mmHg 85%
    20:00 +11°C° 0 mm 3 mps 748 mmHg 86%
    21:00 +11°C° 0 mm 3 mps 749 mmHg 87%
    22:00 +10°C° 0 mm 3 mps 749 mmHg 88%
    23:00 +10°C° 0 mm 3 mps 749 mmHg 89%

    15 December, Saturday

    Time Temperature Precipitation Wind Pressure Humidity
    00:00 +10°C° 0 mm 3 mps 749 mmHg 89%
    01:00 +11°C° 0 mm 3 mps 749 mmHg 89%
    02:00 +11°C° 0 mm 3 mps 750 mmHg 90%
    03:00 +11°C° 0 mm 3 mps 750 mmHg 90%
    04:00 +11°C° 0 mm 3 mps 750 mmHg 91%
    05:00 +11°C° 0 mm 3 mps 750 mmHg 90%
    06:00 +11°C° 0 mm 3 mps 750 mmHg 90%
    07:00 +10°C° 0 mm 3 mps 750 mmHg 90%
    08:00 +11°C° 0 mm 3 mps 751 mmHg 88%
    09:00 +12°C° 0 mm 3 mps 751 mmHg 85%
    10:00 +13°C° 0 mm 3 mps 752 mmHg 82%
    11:00 +13°C° 0 mm 3 mps 752 mmHg 79%
    12:00 +14°C° 0 mm 3 mps 752 mmHg 77%
    13:00 +14°C° 0 mm 3 mps 751 mmHg 74%
    14:00 +14°C° 0 mm 3 mps 752 mmHg 77%
    15:00 +13°C° 0 mm 3 mps 752 mmHg 79%
    16:00 +13°C° 0 mm 3 mps 752 mmHg 81%
    17:00 +13°C° 0.1 mm 3 mps 752 mmHg 83%
    18:00 +12°C° 0.1 mm 3 mps 753 mmHg 85%
    19:00 +12°C° 0.1 mm 3 mps 753 mmHg 87%
    20:00 +12°C° 0 mm 3 mps 753 mmHg 87%
    21:00 +11°C° 0 mm 3 mps 754 mmHg 87%
    22:00 +12°C° 0 mm 2 mps 754 mmHg 87%
    23:00 +12°C° 0 mm 2 mps 754 mmHg 87%
    Show more